| time (UTC) | temp C | wind direction | speed KPH | gust KPH | rain 1hr cm | rain 24hr cm | rain mn cm | humidity % | barometer mb |
| 20260503211535 | 16 | 226 | 8.0 | 25.7 | 0.00 | 0.00 | 0.00 | 43 | 1012.1 |
| 20260503210034 | 16 | 209 | 8.0 | 24.1 | 0.00 | 0.00 | 0.00 | 44 | 1012.1 |
| 20260503204532 | 16 | 254 | 8.0 | 29.0 | 0.00 | 0.00 | 0.00 | 44 | 1012.4 |
| 20260503203040 | 16 | 129 | 9.7 | 24.1 | 0.00 | 0.00 | 0.00 | 45 | 1012.3 |
| 20260503201543 | 16 | 182 | 8.0 | 25.7 | 0.00 | 0.00 | 0.00 | 44 | 1012.4 |
| 20260503200035 | 17 | 321 | 9.7 | 29.0 | 0.00 | 0.00 | 0.00 | 41 | 1012.7 |
| 20260503194533 | 16 | 205 | 9.7 | 33.8 | 0.00 | 0.00 | 0.00 | 43 | 1012.9 |
| 20260503193031 | 16 | 249 | 6.4 | 24.1 | 0.00 | 0.00 | 0.00 | 46 | 1013.1 |
| 20260503191538 | 16 | 163 | 11.3 | 30.6 | 0.00 | 0.00 | 0.00 | 44 | 1013.4 |
| 20260503190041 | 16 | 288 | 11.3 | 27.4 | 0.00 | 0.00 | 0.00 | 45 | 1013.5 |
| 20260503184538 | 16 | 254 | 11.3 | 30.6 | 0.00 | 0.00 | 0.00 | 45 | 1013.6 |
| 20260503183035 | 16 | 262 | 6.4 | 22.5 | 0.00 | 0.00 | 0.00 | 49 | 1013.9 |
| 20260503181535 | 15 | 86 | 8.0 | 27.4 | 0.00 | 0.00 | 0.00 | 45 | 1013.9 |
| 20260503180045 | 16 | 267 | 9.7 | 24.1 | 0.00 | 0.00 | 0.00 | 44 | 1014.2 |
| 20260503174535 | 16 | 286 | 8.0 | 24.1 | 0.00 | 0.00 | 0.00 | 46 | 1014.2 |
| 20260503173040 | 15 | 218 | 11.3 | 24.1 | 0.00 | 0.00 | 0.00 | 47 | 1014.4 |
| 20260503171536 | 15 | 308 | 11.3 | 25.7 | 0.00 | 0.00 | 0.00 | 47 | 1014.7 |
| 20260503081535 | 1 | 174 | 0.0 | 4.8 | 0.00 | 0.30 | 0.00 | 82 | 1016.1 |
| 20260503071535 | 1 | 0 | 0.0 | 1.6 | 0.00 | 0.30 | 0.00 | 84 | 1016.2 |
| 20260503060105 | 2 | 0 | 0.0 | 3.2 | 0.00 | 0.30 | 0.00 | 84 | 1016.5 |
| 20260503054538 | 2 | 0 | 0.0 | 4.8 | 0.00 | 0.30 | 0.00 | 84 | 1016.6 |
| 20260503053034 | 2 | 212 | 0.0 | 4.8 | 0.00 | 0.30 | 0.00 | 84 | 1016.6 |
| 20260503051532 | 2 | 0 | 0.0 | 1.6 | 0.00 | 0.30 | 0.00 | 83 | 1016.6 |
| 20260503050037 | 2 | 0 | 0.0 | 3.2 | 0.00 | 0.30 | 0.00 | 82 | 1016.5 |
| 20260503044536 | 2 | 0 | 0.0 | 1.6 | 0.00 | 0.38 | 0.00 | 81 | 1016.7 |
| 20260503043046 | 3 | 0 | 0.0 | 1.6 | 0.00 | 0.38 | 0.00 | 80 | 1016.6 |
| 20260503041535 | 3 | 0 | 0.0 | 3.2 | 0.00 | 0.38 | 0.00 | 79 | 1016.7 |
| 20260503040045 | 4 | 250 | 0.0 | 1.6 | 0.00 | 0.38 | 0.00 | 78 | 1016.7 |
| 20260503034532 | 5 | 160 | 0.0 | 4.8 | 0.00 | 0.38 | 0.38 | 77 | 1016.9 |
| 20260503033036 | 5 | 0 | 1.6 | 6.4 | 0.00 | 0.38 | 0.38 | 77 | 1016.9 |
| 20260503031534 | 5 | 0 | 0.0 | 3.2 | 0.00 | 0.38 | 0.38 | 77 | 1017.1 |
| 20260503030035 | 5 | 139 | 0.0 | 4.8 | 0.00 | 0.38 | 0.38 | 77 | 1017.1 |
| 20260503024536 | 5 | 217 | 0.0 | 3.2 | 0.00 | 0.51 | 0.38 | 77 | 1017.2 |
| 20260503023034 | 5 | 184 | 0.0 | 4.8 | 0.00 | 0.51 | 0.38 | 76 | 1017.3 |
| 20260503021547 | 5 | 138 | 0.0 | 3.2 | 0.00 | 0.51 | 0.38 | 76 | 1017.2 |
| 20260503020046 | 5 | 173 | 0.0 | 3.2 | 0.00 | 0.51 | 0.38 | 75 | 1017.3 |
| 20260503014535 | 5 | 0 | 0.0 | 3.2 | 0.00 | 0.53 | 0.38 | 75 | 1017.1 |
| 20260503013035 | 5 | 0 | 0.0 | 0.0 | 0.00 | 0.53 | 0.38 | 75 | 1017.2 |
| 20260503011532 | 5 | 0 | 0.0 | 1.6 | 0.00 | 0.53 | 0.38 | 73 | 1017.0 |
| 20260503010032 | 5 | 0 | 0.0 | 0.0 | 0.00 | 0.53 | 0.38 | 72 | 1017.0 |
| 20260503004536 | 5 | 0 | 0.0 | 0.0 | 0.00 | 0.53 | 0.38 | 70 | 1016.9 |
| 20260503003049 | 6 | 250 | 0.0 | 1.6 | 0.00 | 0.53 | 0.38 | 66 | 1016.8 |
| 20260503001538 | 6 | 267 | 0.0 | 1.6 | 0.00 | 0.53 | 0.38 | 62 | 1016.8 |
| 20260503000035 | 6 | 0 | 0.0 | 3.2 | 0.00 | 0.53 | 0.38 | 61 | 1016.7 |
| 20260502234534 | 7 | 0 | 1.6 | 4.8 | 0.00 | 0.53 | 0.38 | 60 | 1016.8 |
| 20260502233035 | 7 | 291 | 0.0 | 9.7 | 0.00 | 0.53 | 0.38 | 62 | 1016.8 |
| 20260502231533 | 7 | 329 | 3.2 | 9.7 | 0.00 | 0.53 | 0.38 | 59 | 1016.7 |
| 20260502230036 | 7 | 35 | 3.2 | 11.3 | 0.00 | 0.53 | 0.38 | 61 | 1016.9 |
| 20260502224537 | 7 | 328 | 1.6 | 6.4 | 0.00 | 0.53 | 0.38 | 64 | 1016.9 |
| 20260502223034 | 7 | 12 | 1.6 | 4.8 | 0.00 | 0.53 | 0.38 | 65 | 1016.8 |
| 20260502221531 | 7 | 306 | 4.8 | 9.7 | 0.00 | 0.53 | 0.38 | 64 | 1017.0 |
| 20260502220036 | 7 | 286 | 1.6 | 11.3 | 0.00 | 0.53 | 0.38 | 62 | 1017.0 |
| 20260502214537 | 7 | 309 | 1.6 | 4.8 | 0.00 | 0.53 | 0.38 | 62 | 1017.0 |
| 20260502213051 | 8 | 17 | 1.6 | 16.1 | 0.00 | 0.53 | 0.38 | 60 | 1016.9 |